FW9574 Weather Reports


time (UTC)temp
C
wind
direction
speed
KPH
gust
KPH
rain 1hr
cm
rain 24hr
cm
rain mn
cm
humidity
%
barometer
mb
20260502170143 17 253 29.0 30.6 0.00 0.00 0.00 38 1012.4
20260502164130 16 266 9.7 17.7 0.00 0.00 0.00 39 1012.4
20260502163626 16 224 14.5 22.5 0.00 0.00 0.00 41 1012.6
20260502163123 16 234 12.9 24.1 0.00 0.00 0.00 40 1012.7
20260502162619 15 228 14.5 32.2 0.00 0.00 0.00 43 1012.8
20260502162117 15 230 9.7 20.9 0.00 0.00 0.00 46 1012.9
20260502161614 15 231 8.0 22.5 0.00 0.00 0.00 46 1013.1
20260502161111 15 250 17.7 19.3 0.00 0.00 0.00 45 1013.1
20260502160609 15 222 9.7 25.7 0.00 0.00 0.00 43 1013.3
20260502160107 15 282 9.7 17.7 0.00 0.00 0.00 45 1013.2
20260502152022 13 230 9.7 25.7 0.00 0.00 0.00 47 1013.9
20260502151518 13 256 19.3 20.9 0.00 0.00 0.00 46 1013.9
20260502151016 12 254 11.3 27.4 0.00 0.00 0.00 50 1013.8
20260502150513 13 203 8.0 20.9 0.00 0.00 0.00 51 1014.1
20260502130358 5 173 14.5 19.3 0.00 0.00 0.00 67 1015.3
20260502123341 4 161 9.7 14.5 0.00 0.00 0.00 70 1015.6
20260502122838 3 148 6.4 11.3 0.00 0.00 0.00 73 1015.7
20260502122333 3 144 9.7 12.9 0.00 0.00 0.00 72 1016.0
20260502121832 3 148 6.4 12.9 0.00 0.00 0.00 72 1015.8
20260502121329 3 150 12.9 12.9 0.00 0.00 0.00 71 1015.4
20260502120826 3 161 8.0 14.5 0.00 0.00 0.00 72 1015.6
20260502120322 3 161 9.7 14.5 0.00 0.00 0.00 72 1015.6
20260502115820 3 145 9.7 14.5 0.00 0.00 0.00 72 1015.7
20260502115317 2 159 11.3 16.1 0.00 0.00 0.00 72 1015.7
20260502114813 2 155 11.3 14.5 0.00 0.00 0.00 72 1015.7
20260502114310 2 159 8.0 14.5 0.00 0.00 0.00 73 1015.7
20260502113807 2 152 9.7 12.9 0.00 0.00 0.00 73 1015.8
20260502113305 2 160 9.7 11.3 0.00 0.00 0.00 74 1015.8
20260502112803 2 165 9.7 11.3 0.00 0.00 0.00 73 1015.8
20260502112300 2 169 6.4 9.7 0.00 0.00 0.00 74 1015.8
20260502111757 2 162 9.7 11.3 0.00 0.00 0.00 73 1015.9
20260502111255 2 157 9.7 11.3 0.00 0.00 0.00 73 1015.8
20260502110752 2 151 9.7 12.9 0.00 0.00 0.00 73 1015.9
20260502110250 2 159 8.0 9.7 0.00 0.00 0.00 73 1016.0
20260502105748 2 160 6.4 8.0 0.00 0.00 0.00 73 1016.0
20260502105243 1 159 4.8 8.0 0.00 0.00 0.00 74 1016.2
20260502104742 1 158 6.4 8.0 0.00 0.00 0.00 74 1016.1
20260502104239 1 166 6.4 6.4 0.00 0.00 0.00 75 1016.2
20260502103736 1 152 6.4 6.4 0.00 0.00 0.00 75 1016.1
20260502103234 1 147 6.4 8.0 0.00 0.00 0.00 74 1016.3
20260502102730 2 157 4.8 6.4 0.00 0.00 0.00 73 1016.3
20260502102227 2 122 1.6 8.0 0.00 0.00 0.00 73 1016.6
20260502101725 2 149 6.4 8.0 0.00 0.00 0.00 73 1016.4
20260502101223 2 159 6.4 8.0 0.00 0.00 0.00 73 1016.6
20260502100721 2 150 8.0 8.0 0.00 0.00 0.00 73 1016.6
20260502100219 2 147 4.8 8.0 0.00 0.00 0.00 72 1016.6
20260502091153 1 150 3.2 4.8 0.00 0.00 0.00 79 1016.8
20260502090651 1 132 3.2 6.4 0.00 0.00 0.00 81 1016.8
20260502090148 1 119 4.8 6.4 0.00 0.00 0.00 81 1016.8
20260502071049 1 99 3.2 4.8 0.00 0.00 0.00 85 1017.3
20260502070547 1 106 4.8 6.4 0.00 0.00 0.00 85 1017.5
20260502070045 1 121 3.2 4.8 0.00 0.00 0.00 85 1017.5
20260502065543 1 113 1.6 4.8 0.00 0.00 0.00 84 1017.5
20260502065040 1 128 3.2 4.8 0.00 0.00 0.00 83 1017.5
20260502064539 1 123 3.2 4.8 0.00 0.00 0.00 83 1017.5
20260502064035 1 112 4.8 4.8 0.00 0.00 0.00 82 1017.6
20260502063533 1 109 6.4 6.4 0.00 0.00 0.00 81 1017.7
20260502063031 1 132 3.2 4.8 0.00 0.00 0.00 81 1017.7
20260502062527 1 122 4.8 4.8 0.00 0.00 0.00 80 1017.7
20260502062026 1 113 3.2 3.2 0.00 0.00 0.00 80 1017.8
20260502061524 1 119 3.2 4.8 0.00 0.00 0.00 80 1017.7
20260502061020 1 115 4.8 4.8 0.00 0.00 0.00 80 1017.5
20260502060515 2 106 4.8 4.8 0.00 0.00 0.00 79 1017.6
20260502060013 2 116 4.8 4.8 0.00 0.00 0.00 79 1017.7
20260502055510 2 105 4.8 6.4 0.00 0.00 0.00 77 1017.8
20260502055009 2 94 3.2 4.8 0.00 0.00 0.00 74 1017.6
20260502054507 2 109 4.8 4.8 0.00 0.00 0.00 72 1017.7
20260502054004 2 110 3.2 4.8 0.00 0.00 0.00 73 1017.7
20260502053500 2 110 4.8 6.4 0.00 0.00 0.00 72 1017.6
20260502052959 2 97 3.2 3.2 0.00 0.00 0.00 71 1017.7
20260502052456 2 119 3.2 4.8 0.00 0.00 0.00 70 1017.8
20260502051955 2 110 1.6 4.8 0.00 0.00 0.00 71 1017.8
20260502051452 2 145 1.6 3.2 0.00 0.00 0.00 71 1017.9
20260502050949 2 111 4.8 4.8 0.00 0.00 0.00 68 1017.8
20260502050446 2 119 1.6 3.2 0.00 0.00 0.00 67 1017.9
20260502045943 2 135 3.2 4.8 0.00 0.00 0.00 69 1017.8
20260502045439 2 117 3.2 3.2 0.00 0.00 0.00 67 1017.8
20260502044937 2 108 6.4 6.4 0.00 0.00 0.00 68 1017.8
20260502044432 2 107 4.8 6.4 0.00 0.00 0.00 67 1017.8
20260502043929 2 116 3.2 3.2 0.00 0.00 0.00 68 1017.9
20260502043427 2 147 0.0 1.6 0.00 0.00 0.00 69 1018.0
20260502042926 2 191 0.0 3.2 0.00 0.00 0.00 69 1018.0
20260502042424 3 166 3.2 3.2 0.00 0.00 0.00 68 1018.0
20260502041921 3 114 4.8 6.4 0.00 0.00 0.00 67 1018.1
20260502041419 3 113 6.4 6.4 0.00 0.00 0.00 67 1018.0
20260502040916 3 104 4.8 4.8 0.00 0.00 0.00 63 1018.0
20260502040412 3 95 4.8 6.4 0.00 0.00 0.00 61 1018.0
20260502035908 3 108 3.2 4.8 0.00 0.00 0.00 63 1018.1
20260502035405 4 110 4.8 6.4 0.00 0.00 0.00 62 1018.2
20260502034902 3 106 4.8 6.4 0.00 0.00 0.00 64 1018.2
20260502034401 3 131 3.2 3.2 0.00 0.00 0.00 62 1018.1
20260502033859 3 133 1.6 3.2 0.00 0.00 0.00 62 1018.1
20260502033356 4 110 3.2 4.8 0.00 0.00 0.00 60 1018.1
20260502032853 5 117 4.8 4.8 0.00 0.00 0.00 58 1018.1
20260502032349 5 113 4.8 6.4 0.00 0.00 0.00 52 1018.0
20260502031847 5 104 4.8 6.4 0.00 0.00 0.00 54 1018.0
20260502031345 5 118 4.8 4.8 0.00 0.00 0.00 53 1018.0
20260502030843 5 103 3.2 4.8 0.00 0.00 0.00 54 1018.1
20260502030341 5 108 3.2 4.8 0.00 0.00 0.00 56 1018.0
20260502025838 5 119 3.2 4.8 0.00 0.00 0.00 53 1018.1
20260502025335 6 117 3.2 4.8 0.00 0.00 0.00 53 1018.1
20260502024833 6 112 4.8 4.8 0.00 0.00 0.00 54 1018.1
20260502024331 6 118 3.2 4.8 0.00 0.00 0.00 54 1018.3
20260502023828 6 113 3.2 4.8 0.00 0.00 0.00 49 1018.2
20260502023326 6 114 3.2 4.8 0.00 0.00 0.00 52 1018.0
20260502022824 7 120 3.2 3.2 0.00 0.00 0.00 53 1018.0
20260502022320 7 122 4.8 4.8 0.00 0.00 0.00 48 1017.9
20260502021817 7 117 4.8 4.8 0.00 0.00 0.00 50 1017.9
20260502021314 7 125 3.2 4.8 0.00 0.00 0.00 52 1017.9
20260502020811 7 123 4.8 4.8 0.00 0.00 0.00 48 1017.9
20260502020309 7 147 4.8 4.8 0.00 0.00 0.00 46 1017.8
20260502015806 8 144 4.8 4.8 0.00 0.00 0.00 46 1017.8
20260502015305 8 146 4.8 6.4 0.00 0.00 0.00 44 1017.7
20260502014800 8 143 4.8 4.8 0.00 0.00 0.00 43 1017.8
20260502014257 8 143 3.2 4.8 0.00 0.00 0.00 43 1017.8
20260502013753 8 153 0.0 1.6 0.00 0.00 0.00 41 1017.9
20260502013248 9 175 0.0 1.6 0.00 0.00 0.00 40 1017.7
20260502012745 10 68 1.6 3.2 0.00 0.00 0.00 39 1017.7
20260502012243 10 110 1.6 1.6 0.00 0.00 0.00 39 1017.8
20260502011740 11 119 0.0 1.6 0.00 0.00 0.00 38 1017.9
20260502011236 11 49 0.0 3.2 0.00 0.00 0.00 36 1017.8
20260502010734 11 209 0.0 1.6 0.00 0.00 0.00 37 1017.8
20260502010229 11 353 3.2 6.4 0.00 0.00 0.00 36 1017.7
20260502005727 11 51 1.6 8.0 0.00 0.00 0.00 35 1017.7
20260502005225 11 32 0.0 4.8 0.00 0.00 0.00 37 1017.9
20260502004721 11 339 1.6 3.2 0.00 0.00 0.00 35 1017.6
20260502004218 11 271 4.8 9.7 0.00 0.00 0.00 36 1017.8
20260502003716 12 357 3.2 11.3 0.00 0.00 0.00 35 1017.6
20260502003213 12 291 3.2 4.8 0.00 0.00 0.00 36 1017.6
20260502002708 11 26 6.4 8.0 0.00 0.00 0.00 35 1017.7
20260502002206 12 247 11.3 12.9 0.00 0.00 0.00 35 1017.7
20260502001703 12 261 6.4 9.7 0.00 0.00 0.00 36 1017.6
20260502001201 12 284 1.6 8.0 0.00 0.00 0.00 35 1017.8
20260502000658 12 357 4.8 12.9 0.00 0.00 0.00 35 1017.6
20260502000156 12 265 4.8 9.7 0.00 0.00 0.00 35 1017.7
20260501235652 12 276 11.3 11.3 0.00 0.00 0.00 33 1017.7
20260501235148 12 248 3.2 8.0 0.00 0.00 0.00 33 1017.7
20260501234643 12 261 3.2 8.0 0.00 0.00 0.00 32 1017.8
20260501234141 12 28 6.4 9.7 0.00 0.00 0.00 35 1017.8
20260501233639 12 216 0.0 6.4 0.00 0.00 0.00 35 1017.8
20260501233136 12 347 3.2 8.0 0.00 0.00 0.00 33 1017.8
20260501232632 12 11 4.8 8.0 0.00 0.00 0.00 34 1017.8
20260501232130 12 24 8.0 8.0 0.00 0.00 0.00 36 1017.8
20260501231627 13 8 6.4 9.7 0.00 0.00 0.00 34 1017.7
20260501231125 12 29 3.2 8.0 0.00 0.00 0.00 34 1017.8
20260501230623 12 288 0.0 6.4 0.00 0.00 0.00 33 1017.7
20260501230121 12 350 4.8 9.7 0.00 0.00 0.00 34 1017.8
20260501225619 12 1 4.8 9.7 0.00 0.00 0.00 34 1017.8
20260501225114 12 38 6.4 14.5 0.00 0.00 0.00 34 1017.9
20260501224612 13 133 1.6 12.9 0.00 0.00 0.00 34 1017.7
20260501224109 12 120 6.4 8.0 0.00 0.00 0.00 34 1017.6
20260501223605 12 230 9.7 9.7 0.00 0.00 0.00 34 1017.7
20260501223102 12 349 4.8 14.5 0.00 0.00 0.00 34 1017.8
20260501222558 12 5 6.4 12.9 0.00 0.00 0.00 37 1017.8
20260501222055 12 70 4.8 11.3 0.00 0.00 0.00 35 1017.8
20260501221552 12 354 11.3 14.5 0.00 0.00 0.00 35 1017.8
20260501221049 12 262 12.9 12.9 0.00 0.00 0.00 36 1017.8
20260501220547 12 282 8.0 17.7 0.00 0.00 0.00 36 1018.0
20260501220043 12 333 3.2 9.7 0.00 0.00 0.00 34 1018.0
20260501215540 12 244 6.4 9.7 0.00 0.00 0.00 34 1018.0
20260501215035 12 9 8.0 14.5 0.00 0.00 0.00 35 1017.9
20260501214531 12 13 3.2 19.3 0.00 0.00 0.00 34 1018.1
20260501214026 12 14 12.9 17.7 0.00 0.00 0.00 36 1018.2
20260501213524 12 356 4.8 14.5 0.00 0.00 0.00 37 1018.1
20260501213020 12 318 9.7 12.9 0.00 0.00 0.00 35 1018.1
20260501212516 12 324 4.8 11.3 0.00 0.00 0.00 36 1018.2
20260501212014 12 346 9.7 9.7 0.00 0.00 0.00 36 1018.1
20260501211510 12 249 3.2 6.4 0.00 0.00 0.00 36 1018.2
20260501211008 12 29 8.0 12.9 0.00 0.00 0.00 37 1018.3
20260501210504 12 342 4.8 11.3 0.00 0.00 0.00 37 1018.2
20260501210001 12 147 3.2 3.2 0.00 0.00 0.00 36 1018.4
20260501205457 11 260 6.4 14.5 0.00 0.00 0.00 37 1018.3
20260501204955 10 315 6.4 11.3 0.00 0.00 0.00 39 1018.4
20260501204450 11 331 6.4 17.7 0.00 0.00 0.00 41 1018.5
20260501203947 11 359 6.4 17.7 0.00 0.00 0.00 38 1018.4
20260501203444 12 253 6.4 9.7 0.00 0.00 0.00 38 1018.5
20260501202942 11 2 12.9 16.1 0.00 0.00 0.00 38 1018.3
20260501202438 11 7 6.4 8.0 0.00 0.00 0.00 39 1018.4
20260501201934 12 327 3.2 9.7 0.00 0.00 0.00 39 1018.5
20260501201432 11 236 9.7 14.5 0.00 0.00 0.00 39 1018.4
20260501200929 12 244 4.8 12.9 0.00 0.00 0.00 37 1018.6
20260501200425 12 330 11.3 14.5 0.00 0.00 0.00 36 1018.6
20260501195923 12 319 3.2 11.3 0.00 0.00 0.00 36 1018.3
20260501195420 11 239 6.4 17.7 0.00 0.00 0.00 38 1018.5
20260501194915 11 314 8.0 9.7 0.00 0.00 0.00 38 1018.6
20260501194411 11 356 0.0 24.1 0.00 0.00 0.00 39 1018.5
20260501193907 11 74 9.7 12.9 0.00 0.00 0.00 38 1018.7
20260501193406 10 58 3.2 6.4 0.00 0.00 0.00 39 1018.7
20260501192903 11 358 4.8 14.5 0.00 0.00 0.00 39 1018.7
20260501192400 11 153 6.4 9.7 0.00 0.00 0.00 37 1018.7
20260501191857 11 28 9.7 9.7 0.00 0.00 0.00 38 1018.8
20260501191354 10 277 1.6 8.0 0.00 0.00 0.00 38 1018.7
20260501190851 10 341 8.0 9.7 0.00 0.00 0.00 39 1018.7
20260501190347 10 24 4.8 19.3 0.00 0.00 0.00 40 1018.6
20260501185842 10 12 3.2 11.3 0.00 0.00 0.00 40 1018.8
20260501185339 11 348 3.2 14.5 0.00 0.00 0.00 38 1018.9
20260501184834 11 93 12.9 16.1 0.00 0.00 0.00 38 1018.6
20260501184330 11 31 4.8 9.7 0.00 0.00 0.00 40 1018.8
20260501183826 10 307 3.2 11.3 0.00 0.00 0.00 40 1018.8
20260501183324 10 9 4.8 12.9 0.00 0.00 0.00 40 1018.8
20260501182820 10 172 4.8 8.0 0.00 0.00 0.00 39 1018.7
20260501182317 10 250 8.0 11.3 0.00 0.00 0.00 41 1018.8
20260501181814 10 277 12.9 14.5 0.00 0.00 0.00 41 1018.9
20260501181311 11 274 8.0 12.9 0.00 0.00 0.00 40 1019.0
20260501180808 10 358 6.4 16.1 0.00 0.00 0.00 41 1018.9
20260501180304 10 39 6.4 11.3 0.00 0.00 0.00 40 1019.0
20260501175801 10 62 14.5 16.1 0.00 0.00 0.00 41 1019.0
20260501175258 10 48 6.4 16.1 0.00 0.00 0.00 43 1019.0